Lid_Strength_Index
10 10 13 13 13 13 14 14 14 14 14 14 13 13 11 10 11 11 10 10 10 10 10 9 8 6 6 6 6 6 6 6 7 7 7 8 8 8 8 8 8 9 9 9
9 13 13 12 12 13 13 14 14 13 14 14 14 14 12 12 12 12 11 10 11 10 10 9 9 8 7 7 6 7 7 7 7 7 7 7 7 8 7 8 9 9 9 9
11 13 12 12 13 13 14 14 15 15 14 15 15 13 13 12 12 11 11 10 10 10 10 10 9 8 7 7 6 7 6 6 7 7 8 9 9 9 9 8 8 9 9 9
12 12 12 13 14 13 13 14 15 15 14 15 15 14 12 12 11 11 11 10 10 10 9 9 9 8 8 6 6 6 6 7 7 7 8 8 8 8 7 7 7 8 9 9
13 13 12 13 13 13 14 13 14 15 15 15 15 14 11 11 11 11 10 10 10 9 8 8 8 8 7 6 6 5 6 6 6 6 7 7 7 7 7 7 8 8 8 9
13 12 12 13 12 13 12 14 15 15 14 15 20 17 13 12 12 11 10 10 10 9 8 8 7 7 7 6 6 6 7 6 6 6 6 7 7 7 7 7 8 7 8 8
13 13 12 12 13 12 14 14 15 16 16 16 22 17 12 12 11 12 12 11 10 9 8 8 8 7 7 7 7 7 7 7 6 6 6 6 6 6 6 6 7 7 8 8
14 15 14 13 13 14 15 14 14 19 17 16 22 16 13 12 11 11 10 10 9 9 9 8 8 8 7 7 7 7 7 7 7 7 7 6 6 6 6 6 7 7 8 8
15 15 13 13 13 14 15 14 16 19 26 18 16 14 12 12 12 12 11 11 10 10 9 9 8 8 8 8 8 7 7 7 7 7 7 7 6 7 7 7 7 7 8 8
15 15 16 14 13 14 14 15 16 15 19 19 17 19 13 14 13 14 13 13 12 11 10 9 9 9 8 8 8 8 8 8 7 7 7 7 7 7 7 7 7 8 8 8
14 14 16 15 15 15 15 15 16 15 17 17 18 15 11 11 13 15 14 13 13 12 11 10 9 9 9 8 8 8 8 8 8 7 7 7 7 8 8 8 8 8 8 8
13 14 16 15 15 14 15 14 14 16 18 19 18 16 11 13 15 14 14 14 12 12 11 10 10 9 9 9 9 8 8 8 8 8 8 8 8 8 8 8 8 8 9 8
12 15 16 17 17 15 16 15 16 17 16 19 17 15 16 16 15 14 15 14 13 12 11 11 11 11 10 10 10 9 9 8 8 8 8 8 8 8 9 9 8 8 9 9
11 15 16 16 16 15 17 16 16 15 17 16 16 14 13 15 16 15 15 14 13 13 12 11 11 11 10 11 10 10 9 9 8 8 9 9 9 9 8 8 9 9 9 9
12 16 16 16 17 18 16 17 17 19 16 16 15 16 14 14 16 16 16 14 14 13 12 12 11 11 11 11 11 10 10 10 9 9 10 10 10 9 9 9 9 9 9 9
13 17 19 19 17 17 18 16 17 17 16 17 16 16 14 16 18 16 15 14 14 13 13 12 11 11 12 11 11 10 10 10 10 10 11 11 11 11 11 10 10 10 10 10
15 17 19 19 21 21 21 18 17 15 15 15 18 15 17 17 16 15 14 14 14 13 13 12 12 12 11 11 11 11 10 10 10 11 12 13 13 12 11 11 11 11 10 10
16 16 17 19 21 23 17 16 16 16 14 16 17 17 17 16 15 14 14 14 14 14 13 12 12 12 11 11 11 11 11 11 11 12 13 13 14 14 13 12 12 11 11 11
13 14 17 20 22 18 16 16 16 16 16 15 16 16 15 15 14 13 12 12 13 12 12 11 11 11 11 11 11 11 11 11 11 13 12 12 14 15 14 14 13 11 11 11
15 13 15 21 21 22 18 15 14 14 19 15 15 15 15 15 18 14 12 12 12 11 11 11 10 10 10 10 10 11 11 11 10 10 10 10 13 15 15 13 12 11 10 10
18 17 18 18 19 18 14 14 14 19 18 15 15 14 15 16 14 13 12 12 11 11 11 10 10 10 10 10 10 11 10 10 8 8 8 9 12 13 13 12 11 10 10 10
19 19 19 18 20 22 14 16 17 14 14 14 14 14 14 14 13 13 12 12 12 11 11 10 10 10 9 9 9 10 9 7 7 7 7 7 9 11 11 11 11 10 10 11
19 16 16 16 16 14 13 14 12 13 13 13 13 13 13 13 13 13 13 12 12 11 11 10 10 10 9 8 8 10 8 7 7 7 7 6 8 10 11 12 12 11 11 12
17 16 17 16 14 14 13 12 12 12 13 12 12 12 12 13 13 13 12 12 12 11 11 10 10 10 10 8 8 8 8 8 9 8 7 5 8 9 12 12 11 11 12 12
15 16 16 17 15 14 13 13 12 12 11 12 11 12 12 12 12 12 12 12 12 11 10 10 10 9 9 9 9 9 9 10 9 8 7 6 7 10 12 12 12 12 11 10
15 14 17 17 13 14 13 11 11 12 12 12 12 13 12 12 12 11 12 11 11 11 10 9 8 9 9 10 11 10 11 11 10 9 7 6 7 10 12 13 13 11 10 10